Home   Weather   Weyhe   Past weeks

Flag for Germany Past Weather in Weyhe, Lower Saxony, Germany — Yesterday and Last 2 Weeks

Now
28 °F

Ice fog.


Feels Like: 22 °F
Forecast: 23 / 33 °F
Wind: 6 mph from Southeast

Location: Bremen Airport

Current Time: Jan 22, 2017 at 11:30:40 am

Latest Report: Jan 22, 2017 at 10:50 am


Visibility: 1 mi

Pressure: 30.36 "Hg

Humidity: 100%

Dew Point: 28 °F

Location of WeyheLocation

Past Weather in Weyhe — Graph

°F

Weyhe Temperature Yesterday

Maximum temperature yesterday: 37 °F (at 12:20 pm)
Minimum temperature yesterday: 32 °F (at 2:20 am)
Average temperature yesterday: 35 °F

High & Low Weather Summary for the Past Weeks

 TemperatureHumidityPressure
High45 °F (Jan 11, 2:20 pm)100% (Jan 7, 11:50 am)30.74 "Hg (Jan 7, 11:50 am)
Low14 °F (Jan 17, 2:20 am)71% (Jan 12, 11:20 am)29.00 "Hg (Jan 13, 3:50 am)
Average31 °F91%30.15 "Hg
* Reported Jan 7 10:20 am — Jan 22 10:20 am, Weyhe, Weather by CustomWeather, © 2017

Note: Actual official high and low records may vary slightly from our data, if they occured in-between our weather recording intervals... More about our weather records

Advertising

Weyhe Weather History for the Previous 24 Hours

Scroll right to see more
 ConditionsComfort  
Time TempWeatherWind HumidityBarometerVisibility
10:20 am
Sun, Jan 22
28 °FIce fog.5 mph100%30.39 "Hg1 mi
9:50 am28 °FIce fog.7 mph100%30.39 "Hg2 mi
9:20 am28 °FIce fog.No wind93%30.39 "Hg2 mi
8:50 am27 °FIce fog.No wind100%30.36 "Hg2 mi
8:20 am27 °FIce fog.2 mph93%30.36 "Hg2 mi
7:50 am28 °FPassing clouds.7 mph93%30.36 "Hg5 mi
7:20 am28 °FPassing clouds.3 mph93%30.36 "Hg6 mi
6:50 am28 °FPassing clouds.6 mph93%30.36 "HgN/A
6:20 am28 °FPassing clouds.3 mph93%30.36 "HgN/A
5:50 am28 °FPassing clouds.5 mph93%30.36 "HgN/A
5:20 am28 °FPassing clouds.5 mph100%30.36 "HgN/A
4:50 am30 °FPassing clouds.7 mph93%30.39 "HgN/A
4:20 am30 °FPassing clouds.5 mph93%30.39 "HgN/A
3:50 am30 °FPassing clouds.7 mph93%30.39 "HgN/A
3:20 am30 °FClear.7 mph93%30.39 "Hg6 mi
2:50 am30 °FClear.8 mph93%30.39 "HgN/A
2:20 am32 °FClear.8 mph87%30.39 "HgN/A
1:50 am32 °FClear.8 mph93%30.39 "HgN/A
1:20 am32 °FClear.7 mph93%30.39 "HgN/A
12:20 am32 °FPassing clouds.7 mph93%30.42 "HgN/A
11:50 pm
Sat, Jan 21
34 °FPassing clouds.8 mph87%30.42 "HgN/A
11:20 pm34 °FPassing clouds.10 mph87%30.42 "HgN/A
10:50 pm34 °FPassing clouds.9 mph87%30.42 "HgN/A
10:20 pm34 °FPassing clouds.7 mph87%30.42 "HgN/A
9:50 pm34 °FPassing clouds.7 mph87%30.42 "HgN/A
9:20 pm34 °FPassing clouds.6 mph87%30.45 "HgN/A
8:50 pm34 °FPassing clouds.8 mph93%30.45 "HgN/A
8:20 pm36 °FPassing clouds.7 mph87%30.45 "HgN/A
7:50 pm36 °FPassing clouds.8 mph87%30.45 "HgN/A
7:20 pm36 °FPassing clouds.7 mph87%30.42 "HgN/A
6:50 pm36 °FPassing clouds.5 mph87%30.45 "HgN/A
6:20 pm36 °FPassing clouds.5 mph87%30.45 "HgN/A
5:50 pm36 °FPassing clouds.6 mph87%30.45 "HgN/A
5:20 pm36 °FPassing clouds.6 mph87%30.45 "HgN/A
4:50 pm36 °FPassing clouds.5 mph93%30.45 "HgN/A
4:20 pm36 °FPartly sunny.5 mph93%30.45 "HgN/A
3:50 pm36 °FPartly sunny.5 mph93%30.45 "HgN/A
3:20 pm37 °FPartly sunny.5 mph87%30.45 "HgN/A
2:50 pm37 °FPartly sunny.5 mph87%30.45 "HgN/A
2:20 pm37 °FPartly sunny.5 mph87%30.45 "HgN/A
1:50 pm37 °FPartly sunny.5 mph87%30.48 "HgN/A
1:20 pm37 °FPartly sunny.5 mph87%30.48 "HgN/A
12:50 pm37 °FPartly sunny.5 mph81%30.48 "HgN/A
12:20 pm37 °FPartly sunny.2 mph87%30.48 "HgN/A
11:50 am36 °FPartly sunny.2 mph93%30.51 "Hg4 mi
11:20 am36 °FPartly sunny.1 mph93%30.51 "Hg4 mi
Weather by CustomWeather, © 2017

See weather overviewHow to use our weather pages